EW4792 Weather Reports


Display with metric or nautical units.
time (UTC)temp
F
wind
direction
speed
MPH
gust
MPH
rain 1hr
in
rain 24hr
in
rain mn
in
humidity
%
barometer
mb
20260510040650 77 115 1.0 4.0 0.00 0.01 0.01 79 1012.1
20260510040144 78 115 2.0 4.0 0.00 0.01 0.01 79 1012.2
20260510035641 78 115 3.0 6.0 0.00 0.01 0.01 78 1012.1
20260510035115 78 115 4.0 6.0 0.00 0.01 0.01 78 1012.1
20260510034627 78 113 5.0 7.0 0.00 0.01 0.01 78 1012.0
20260510034226 78 118 5.0 7.0 0.00 0.01 0.01 78 1011.9
20260510033659 78 106 6.0 7.0 0.00 0.01 0.01 78 1012.0
20260510033150 78 118 6.0 7.0 0.00 0.01 0.01 77 1012.0
20260510032649 78 118 6.0 7.0 0.00 0.01 0.01 77 1012.0
20260510032146 78 114 4.0 6.0 0.00 0.01 0.01 76 1011.9
20260510031644 79 120 5.0 6.0 0.00 0.01 0.01 76 1011.8
20260510030712 79 120 5.0 8.0 0.00 0.01 0.01 75 1011.7
20260510030123 79 118 6.0 8.0 0.00 0.01 0.01 75 1011.7
20260510025642 79 111 6.0 8.0 0.00 0.01 0.01 75 1011.6
20260510025155 79 105 7.0 9.0 0.00 0.01 0.01 75 1011.7
20260510024706 79 105 7.0 9.0 0.00 0.01 0.01 74 1011.5
20260510024157 79 101 7.0 9.0 0.00 0.01 0.01 74 1011.4
20260510023641 79 104 6.0 8.0 0.00 0.01 0.01 73 1011.4
20260510022710 79 103 6.0 8.0 0.00 0.01 0.01 72 1011.3
20260510022122 80 106 5.0 6.0 0.00 0.01 0.01 72 1011.3
20260510021622 80 107 5.0 6.0 0.00 0.01 0.01 71 1011.2
20260510021134 80 111 5.0 7.0 0.00 0.01 0.01 71 1011.2
20260510020614 80 110 5.0 8.0 0.00 0.01 0.01 71 1011.2
20260510020127 80 108 5.0 8.0 0.00 0.01 0.01 70 1011.0
20260510015728 80 122 6.0 8.0 0.00 0.01 0.01 70 1011.1
20260510015159 80 111 6.0 8.0 0.00 0.01 0.01 69 1011.0
20260510014654 81 118 6.0 10.0 0.00 0.01 0.01 69 1010.9
20260510014145 81 117 7.0 10.0 0.00 0.01 0.01 68 1010.8
20260510013207 81 113 7.0 11.0 0.00 0.01 0.01 66 1010.7
20260510012127 81 109 8.0 10.0 0.00 0.01 0.01 65 1010.5
20260510011733 82 107 7.0 10.0 0.00 0.01 0.01 65 1010.5
20260510011125 82 103 8.0 10.0 0.00 0.01 0.01 64 1010.6
20260510010637 82 101 8.0 9.0 0.00 0.01 0.01 64 1010.4
20260510010134 82 106 7.0 10.0 0.00 0.01 0.01 64 1010.3
20260510005627 82 107 7.0 10.0 0.00 0.01 0.01 63 1010.4
20260510005225 83 131 7.0 13.0 0.00 0.01 0.01 61 1010.3
20260510004659 83 136 8.0 13.0 0.00 0.01 0.01 59 1010.3
20260510004151 83 107 8.0 11.0 0.00 0.01 0.01 58 1010.2
20260510003644 84 125 8.0 10.0 0.00 0.01 0.01 57 1010.1
20260510003142 84 118 8.0 11.0 0.00 0.01 0.01 56 1010.0
20260510002635 84 117 8.0 11.0 0.00 0.01 0.01 57 1009.9
20260510002130 84 126 7.0 10.0 0.00 0.01 0.01 55 1009.9
20260510001625 84 138 8.0 10.0 0.00 0.01 0.01 56 1010.0
20260510001129 84 144 8.0 10.0 0.00 0.01 0.01 57 1009.9
20260510000632 84 142 7.0 9.0 0.00 0.01 0.01 61 1009.9
20260510000128 84 152 7.0 8.0 0.00 0.01 0.01 59 1009.8
20260509235632 84 140 7.0 9.0 0.00 0.01 0.01 60 1009.7
20260509235133 84 128 6.0 9.0 0.00 0.01 0.01 60 1009.7
20260509234629 84 128 6.0 9.0 0.00 0.01 0.01 60 1009.7
20260509234146 84 133 7.0 9.0 0.00 0.01 0.01 63 1009.7
20260509233701 83 142 7.0 10.0 0.00 0.01 0.01 63 1009.6
20260509233154 83 141 7.0 14.0 0.00 0.01 0.01 65 1009.6
20260509232647 82 136 10.0 14.0 0.00 0.01 0.01 64 1009.5
20260509232149 81 153 7.0 8.0 0.00 0.01 0.01 69 1009.6
20260509231701 81 146 4.0 7.0 0.00 0.01 0.01 69 1009.5
20260509231151 82 155 6.0 8.0 0.00 0.01 0.01 69 1009.6
20260509230644 82 165 7.0 12.0 0.00 0.01 0.01 68 1009.4
20260509225622 83 166 9.0 13.0 0.00 0.01 0.01 67 1009.5
20260509225136 83 161 6.0 8.0 0.00 0.01 0.01 67 1009.5
20260509224655 83 141 6.0 9.0 0.00 0.01 0.01 65 1009.5
20260509224147 83 149 7.0 10.0 0.00 0.01 0.01 64 1009.4
20260509223658 83 143 8.0 12.0 0.00 0.01 0.01 64 1009.5
20260509223147 82 122 9.0 14.0 0.00 0.01 0.01 65 1009.5
20260509222707 82 132 11.0 15.0 0.00 0.01 0.01 65 1009.4
20260509222208 81 132 11.0 25.0 0.00 0.01 0.01 65 1009.5
20260509221646 80 134 17.0 32.0 0.00 0.01 0.01 65 1009.7
20260509221144 81 136 21.0 36.0 0.00 0.01 0.01 66 1009.7
20260509220641 83 124 19.0 36.0 0.00 0.01 0.01 65 1009.9
20260509220135 85 120 15.0 21.0 0.00 0.01 0.01 65 1009.8
20260509215639 85 101 11.0 21.0 0.00 0.01 0.01 63 1009.9
20260509215138 87 90 7.0 14.0 0.00 0.01 0.01 65 1009.6
20260509214650 87 152 2.0 4.0 0.00 0.01 0.01 66 1009.5
20260509214147 86 143 1.0 2.0 0.00 0.01 0.01 66 1009.6
20260509213648 86 143 0.0 1.0 0.00 0.01 0.01 68 1009.7
20260509213145 86 143 0.0 1.0 0.00 0.01 0.01 68 1009.8
20260509212620 86 143 0.0 1.0 0.00 0.01 0.01 69 1009.8
20260509212116 85 146 0.0 1.0 0.00 0.01 0.01 69 1009.9
20260509211701 85 146 0.0 0.0 0.00 0.01 0.01 71 1009.8
20260509210658 85 146 0.0 1.0 0.00 0.01 0.01 72 1010.0
20260509210131 85 146 1.0 1.0 0.00 0.01 0.01 71 1010.0
20260509205641 85 146 0.0 2.0 0.00 0.01 0.01 71 1010.2
20260509205153 85 146 1.0 2.0 0.00 0.01 0.01 73 1010.1
20260509204701 85 146 0.0 1.0 0.00 0.01 0.01 73 1010.2
20260509204113 85 146 0.0 1.0 0.00 0.01 0.01 73 1010.1
20260509203630 85 146 0.0 4.0 0.00 0.01 0.01 73 1010.3
20260509203230 84 146 1.0 4.0 0.00 0.01 0.01 74 1010.3
20260509202707 84 146 2.0 3.0 0.00 0.01 0.01 74 1010.4
20260509201713 83 145 0.0 1.0 0.00 0.01 0.01 74 1010.4
20260509201153 83 145 0.0 2.0 0.00 0.01 0.01 74 1010.8
20260509200638 83 145 1.0 2.0 0.00 0.01 0.01 75 1010.7
20260509200148 82 145 0.0 4.0 0.00 0.01 0.01 75 1010.8
20260509195703 82 145 2.0 5.0 0.00 0.01 0.01 75 1010.9
20260509195155 82 147 4.0 6.0 0.00 0.01 0.01 76 1010.9
20260509194709 82 147 5.0 6.0 0.00 0.01 0.01 78 1010.9
20260509194158 83 159 5.0 6.0 0.00 0.01 0.01 79 1010.8
20260509193706 83 173 5.0 6.0 0.00 0.01 0.01 77 1010.9
20260509193140 83 180 5.0 6.0 0.00 0.01 0.01 76 1011.0
20260509192211 84 269 1.0 6.0 0.00 0.01 0.01 74 1011.4
20260509191704 84 269 2.0 6.0 0.00 0.01 0.01 74 1011.4
20260509191200 83 230 3.0 6.0 0.00 0.01 0.01 74 1011.4
20260509190654 83 226 5.0 6.0 0.00 0.01 0.01 75 1011.6
20260509190151 83 252 1.0 8.0 0.00 0.01 0.01 77 1011.6
20260509185624 83 20 5.0 9.0 0.00 0.01 0.01 76 1011.7
20260509185146 82 288 1.0 8.0 0.00 0.01 0.01 77 1011.7
20260509184641 82 334 2.0 6.0 0.00 0.01 0.01 79 1011.8
20260509184139 82 288 1.0 6.0 0.00 0.01 0.01 80 1011.9
20260509183636 81 346 2.0 6.0 0.00 0.01 0.01 80 1011.9
20260509183212 81 316 1.0 6.0 0.00 0.01 0.01 80 1011.8
20260509182707 81 294 2.0 6.0 0.00 0.01 0.01 81 1011.7
20260509182145 81 336 3.0 6.0 0.00 0.01 0.01 81 1011.9
20260509181126 80 286 3.0 7.0 0.00 0.01 0.01 82 1012.1
20260509180624 80 24 4.0 8.0 0.00 0.01 0.01 83 1012.2
20260509180132 80 334 4.0 9.0 0.00 0.01 0.01 83 1012.3
20260509175629 80 342 4.0 9.0 0.00 0.01 0.01 84 1012.3
20260509175124 79 334 3.0 8.0 0.00 0.01 0.01 85 1012.4
20260509174618 79 288 0.0 6.0 0.00 0.01 0.01 85 1012.4
20260509174131 79 287 2.0 7.0 0.00 0.01 0.01 86 1012.6
20260509173645 79 304 3.0 7.0 0.00 0.01 0.01 86 1012.5
20260509172622 78 334 5.0 6.0 0.00 0.01 0.01 87 1012.6
20260509172146 78 325 2.0 8.0 0.00 0.01 0.01 87 1012.7
20260509171627 78 10 5.0 8.0 0.00 0.01 0.01 88 1012.8
20260509171126 78 307 6.0 8.0 0.00 0.01 0.01 88 1012.8
20260509170730 77 297 5.0 8.0 0.00 0.01 0.01 89 1012.7
20260509170118 77 292 6.0 8.0 0.00 0.01 0.01 89 1012.7
20260509165658 77 324 3.0 7.0 0.00 0.01 0.01 90 1012.7
20260509165148 76 324 3.0 7.0 0.00 0.01 0.01 90 1012.5
20260509164658 76 299 1.0 5.0 0.00 0.01 0.01 90 1012.5
20260509164154 76 299 2.0 7.0 0.00 0.01 0.01 90 1012.7
20260509163651 76 299 5.0 9.0 0.00 0.01 0.01 90 1012.7
20260509163150 76 307 5.0 9.0 0.00 0.01 0.01 90 1012.8
20260509162644 75 297 6.0 9.0 0.00 0.01 0.01 91 1012.9
20260509162141 75 301 6.0 8.0 0.00 0.01 0.01 91 1012.9
20260509161655 75 305 5.0 8.0 0.00 0.01 0.01 91 1013.0
20260509161150 75 313 3.0 6.0 0.00 0.01 0.01 91 1013.0
20260509160644 74 332 3.0 6.0 0.00 0.01 0.01 92 1012.9
20260509160138 74 320 3.0 8.0 0.00 0.01 0.01 92 1013.0
20260509155655 74 317 3.0 9.0 0.00 0.01 0.01 92 1013.0
20260509155206 74 318 4.0 9.0 0.00 0.01 0.01 92 1013.1
20260509154638 74 282 0.0 2.0 0.00 0.01 0.01 92 1012.9
20260509154150 74 282 1.0 2.0 0.00 0.01 0.01 92 1012.9
20260509153644 74 193 0.0 1.0 0.00 0.01 0.01 92 1012.9
20260509153140 73 193 0.0 1.0 0.00 0.01 0.01 92 1012.9
20260509152635 73 193 0.0 6.0 0.00 0.01 0.01 92 1013.0
20260509152126 73 193 1.0 8.0 0.00 0.01 0.01 92 1012.9
20260509151710 73 188 6.0 9.0 0.00 0.01 0.01 92 1012.7
20260509151126 73 178 8.0 9.0 0.00 0.01 0.01 92 1012.5
20260509150638 73 180 5.0 7.0 0.00 0.01 0.01 92 1012.8
20260509145711 73 198 5.0 8.0 0.01 0.01 0.01 92 1013.1
20260509145149 73 195 7.0 8.0 0.01 0.01 0.01 92 1013.1
20260509144212 73 193 3.0 6.0 0.01 0.01 0.01 92 1013.2
20260509143708 73 195 4.0 7.0 0.01 0.01 0.01 92 1013.4
20260509143204 73 201 6.0 8.0 0.01 0.01 0.01 92 1013.3
20260509142658 73 211 6.0 8.0 0.01 0.01 0.01 92 1013.1
20260509142151 73 105 0.0 2.0 0.01 0.01 0.01 92 1013.0
20260509141731 73 105 1.0 2.0 0.01 0.01 0.01 92 1012.8
20260509141201 73 105 0.0 1.0 0.01 0.01 0.01 92 1012.8
20260509140651 73 105 0.0 0.0 0.01 0.01 0.01 92 1012.5
20260509140148 73 105 0.0 0.0 0.01 0.01 0.01 92 1012.5
20260509135634 73 111 0.0 2.0 0.00 0.00 0.00 92 1012.5
20260509135130 73 111 0.0 6.0 0.00 0.00 0.00 92 1012.3
20260509134638 73 111 4.0 6.0 0.00 0.00 0.00 92 1012.4
20260509134124 73 132 4.0 5.0 0.00 0.00 0.00 92 1012.3
20260509133616 73 153 1.0 4.0 0.00 0.00 0.00 92 1012.4
20260509133213 73 153 1.0 4.0 0.00 0.00 0.00 92 1012.6
20260509132648 73 153 2.0 4.0 0.00 0.00 0.00 92 1012.6
20260509132144 73 153 1.0 2.0 0.00 0.00 0.00 92 1012.6
20260509131207 73 153 0.0 2.0 0.00 0.00 0.00 92 1012.8
20260509130703 73 153 0.0 2.0 0.00 0.00 0.00 92 1012.7
20260509130138 73 153 1.0 4.0 0.00 0.00 0.00 92 1012.5
20260509125613 73 153 2.0 5.0 0.00 0.00 0.00 92 1012.3
20260509125156 73 153 3.0 7.0 0.00 0.00 0.00 92 1012.1
20260509124657 73 150 6.0 7.0 0.00 0.00 0.00 92 1012.1
20260509123620 73 139 4.0 6.0 0.00 0.00 0.00 92 1012.0
20260509123145 73 95 0.0 0.0 0.00 0.00 0.00 92 1012.3
20260509122629 73 95 0.0 0.0 0.00 0.00 0.00 92 1012.2
20260509122210 73 95 0.0 0.0 0.00 0.00 0.00 92 1012.3
20260509121705 73 95 0.0 2.0 0.00 0.00 0.00 92 1012.5
20260509121142 73 95 1.0 5.0 0.00 0.00 0.00 92 1012.8
20260509120207 73 95 2.0 4.0 0.00 0.00 0.00 92 1012.7
20260509115700 73 93 1.0 4.0 0.00 0.00 0.00 92 1012.6
20260509114709 73 41 0.0 6.0 0.00 0.00 0.00 92 1012.4
20260509114203 73 39 3.0 6.0 0.00 0.00 0.00 92 1012.4
20260509113149 73 10 3.0 9.0 0.00 0.00 0.00 92 1012.4
20260509112632 73 15 5.0 11.0 0.00 0.00 0.00 92 1012.4
20260509112116 73 3 6.0 11.0 0.00 0.00 0.00 92 1012.4
20260509111629 73 10 4.0 10.0 0.00 0.00 0.00 92 1012.5
20260509111121 73 350 4.0 8.0 0.00 0.00 0.00 92 1012.5
20260509110616 73 357 4.0 8.0 0.00 0.00 0.00 92 1012.4
20260509110117 73 4 4.0 6.0 0.00 0.00 0.00 92 1012.3
20260509105717 73 3 1.0 3.0 0.00 0.00 0.00 92 1012.0
20260509105150 73 93 1.0 4.0 0.00 0.00 0.00 91 1012.0
20260509104213 73 93 0.0 2.0 0.00 0.00 0.00 92 1012.1
20260509103711 73 93 0.0 2.0 0.00 0.00 0.00 91 1012.2
20260509103145 73 93 1.0 2.0 0.00 0.00 0.00 91 1012.4
20260509102204 73 93 0.0 4.0 0.00 0.00 0.00 91 1012.3
20260509101658 73 93 1.0 6.0 0.00 0.00 0.00 91 1012.3
20260509101146 73 93 3.0 6.0 0.00 0.00 0.00 91 1012.2
20260509100207 73 84 2.0 4.0 0.00 0.00 0.00 91 1012.0
20260509095700 73 84 0.0 4.0 0.00 0.00 0.00 91 1012.0
20260509095200 73 84 2.0 4.0 0.00 0.00 0.00 91 1011.9
20260509094650 73 84 1.0 4.0 0.00 0.00 0.00 91 1011.9
20260509094201 73 84 1.0 5.0 0.00 0.00 0.00 91 1011.8
20260509093658 73 75 2.0 5.0 0.00 0.00 0.00 91 1011.8
20260509093152 73 65 2.0 4.0 0.00 0.00 0.00 91 1011.8
20260509092646 73 118 1.0 3.0 0.00 0.00 0.00 91 1011.9
20260509092142 73 142 1.0 2.0 0.00 0.00 0.00 91 1011.8
20260509091703 73 149 0.0 0.0 0.00 0.00 0.00 91 1011.9
20260509091158 73 149 0.0 0.0 0.00 0.00 0.00 91 1011.7
20260509090710 73 149 0.0 0.0 0.00 0.00 0.00 91 1011.6
20260509090120 73 149 0.0 0.0 0.00 0.00 0.00 91 1011.4
20260509085700 73 149 0.0 0.0 0.00 0.00 0.00 91 1011.2
20260509085210 73 149 0.0 1.0 0.00 0.00 0.00 91 1011.2
20260509084648 73 149 0.0 2.0 0.00 0.00 0.00 91 1011.5
20260509083626 73 149 0.0 1.0 0.00 0.00 0.00 91 1011.3
20260509083125 73 149 0.0 2.0 0.00 0.00 0.00 91 1011.5
20260509082638 73 149 1.0 6.0 0.00 0.00 0.00 91 1011.6
20260509082156 73 149 1.0 6.0 0.00 0.00 0.00 91 1011.8
20260509081635 73 148 4.0 6.0 0.00 0.00 0.00 91 1011.7
20260509081126 73 146 5.0 6.0 0.00 0.00 0.00 91 1011.7
20260509080623 73 142 3.0 6.0 0.00 0.00 0.00 91 1011.6
20260509080121 73 141 4.0 6.0 0.00 0.00 0.00 91 1011.3
20260509075725 73 144 5.0 6.0 0.00 0.00 0.00 91 1011.4
20260509075158 73 147 5.0 5.0 0.00 0.00 0.00 91 1011.3
20260509074652 73 151 3.0 5.0 0.00 0.00 0.00 91 1011.6
20260509074146 73 150 3.0 6.0 0.00 0.00 0.00 91 1011.6
20260509073210 73 142 5.0 6.0 0.00 0.00 0.00 91 1011.4
20260509072707 73 141 5.0 7.0 0.00 0.00 0.00 91 1011.3
20260509072205 73 154 6.0 10.0 0.00 0.00 0.00 91 1011.5
20260509071704 73 165 8.0 10.0 0.00 0.00 0.00 91 1011.4
20260509071201 73 161 6.0 9.0 0.00 0.00 0.00 91 1011.4
20260509070651 73 159 8.0 10.0 0.00 0.00 0.00 91 1011.7
20260509070127 74 142 8.0 10.0 0.00 0.00 0.00 91 1011.8
20260509065621 74 163 7.0 11.0 0.00 0.00 0.00 91 1011.5
20260509065154 74 167 9.0 11.0 0.00 0.00 0.00 91 1011.6
20260509064625 74 158 8.0 11.0 0.00 0.00 0.00 91 1011.6
20260509064139 74 170 6.0 11.0 0.00 0.00 0.00 90 1011.6
20260509063631 74 178 8.0 11.0 0.00 0.00 0.00 90 1011.7
20260509063126 74 189 8.0 9.0 0.00 0.00 0.00 90 1011.6
20260509062619 74 177 6.0 9.0 0.00 0.00 0.00 90 1011.6
20260509062133 74 184 5.0 10.0 0.00 0.00 0.00 90 1011.6
20260509061626 74 168 7.0 10.0 0.00 0.00 0.00 90 1011.6
20260509061120 74 166 7.0 11.0 0.00 0.00 0.00 90 1011.6
20260509060633 74 170 9.0 11.0 0.00 0.00 0.00 90 1011.6
20260509060125 74 168 8.0 11.0 0.00 0.00 0.00 90 1011.6
20260509055619 74 155 9.0 11.0 0.00 0.00 0.00 90 1011.8
20260509055132 74 170 9.0 11.0 0.00 0.00 0.00 90 1011.7
20260509054624 74 172 8.0 12.0 0.00 0.00 0.00 90 1011.8
20260509054118 74 182 9.0 14.0 0.00 0.00 0.00 90 1012.1
20260509053631 74 182 10.0 12.0 0.00 0.00 0.00 90 1012.2
20260509053124 74 172 9.0 11.0 0.00 0.00 0.00 90 1012.3
20260509052618 74 163 7.0 12.0 0.00 0.00 0.00 90 1012.2
20260509052116 74 161 9.0 12.0 0.00 0.00 0.00 90 1012.0
20260509051646 74 159 8.0 11.0 0.00 0.00 0.00 90 1012.0
20260509051121 74 155 9.0 11.0 0.00 0.00 0.00 90 1012.0
20260509050614 74 155 9.0 11.0 0.00 0.00 0.00 90 1012.2
20260509050148 74 155 10.0 11.0 0.00 0.00 0.00 90 1012.2
20260509045643 73 138 8.0 10.0 0.00 0.00 0.00 90 1012.2
20260509045153 73 128 7.0 9.0 0.00 0.00 0.00 89 1012.0
20260509044648 73 112 5.0 7.0 0.00 0.00 0.00 89 1011.9
20260509044157 73 94 5.0 7.0 0.00 0.00 0.00 89 1011.7
20260509043657 73 104 5.0 7.0 0.00 0.00 0.00 89 1011.7
20260509043153 74 111 5.0 9.0 0.00 0.00 0.00 89 1011.8
20260509042701 74 129 8.0 10.0 0.00 0.00 0.00 89 1011.7
20260509042154 74 142 8.0 10.0 0.00 0.00 0.00 89 1011.8
20260509041651 74 128 4.0 6.0 0.00 0.00 0.00 89 1011.6
20260509041146 74 123 4.0 6.0 0.00 0.00 0.00 89 1011.5